Weather History for KVES - May, 2013

Change the Weather History Date:

Thursday, May 9, 2013

  Actual Average (KDAY) Record (KDAY)
Temperature  
Mean Temperature 64 °F 59 °F  
Max Temperature 78 °F 70 °F 92 °F (1896)
Min Temperature 51 °F 49 °F 31 °F (1947)
Degree Days  
Heating Degree Days 0 7  
Month to date heating degree days 69  
Since 1 July heating degree days 5520  
Cooling Degree Days 0 1  
Month to date cooling degree days 9  
Year to date cooling degree days 19  
Growing Degree Days 14 (Base 50)    
Moisture  
Dew Point 52 °F    
Average Humidity 63    
Maximum Humidity 100    
Minimum Humidity 32    
Precipitation  
Precipitation 0.00 in 0.15 in 1.41 in (1933)
Month to date precipitation 1.34  
Year to date precipitation 13.72  
Snow  
Snow 0.00 in 0.00 in 0.50 in (1923)
Month to date snowfall 0.0  
Since 1 July snowfall 23.3  
Snow Depth -    
Sea Level Pressure  
Sea Level Pressure 29.98 in    
Wind  
Wind Speed 5 mph (WSW)    
Max Wind Speed 21 mph    
Max Gust Speed 29 mph    
Visibility 10 miles    
Events      
T = Trace of Precipitation, MM = Missing Value Source: NWS Daily Summary

Daily Weather History Graph

Daily Weather History Graph

Search for Another Location

Airport or City:

Trip Planner

Search our weather history database for the weather conditions in past years. The results will help you decide how hot, cold, wet, or windy it might be!

Date:

Astronomy

May. 09, 2013 Rise Set
Actual Time 6:28 AM EDT 8:41 PM EDT
Civil Twilight 5:57 AM EDT 9:11 PM EDT
Nautical Twilight 5:20 AM EDT 9:49 PM EDT
Astronomical Twilight 4:40 AM EDT 10:30 PM EDT
Moon 6:12 AM EDT (5/9) 8:35 PM EDT (5/9)
Length of Visible Light 15h 13m
Length of Day
14h 13m
Waning Crescent, 0% of the Moon is Illuminated
May 9
Waning Crescent
May 9
New
May 18
First Quarter
May 25
Full
May 31
Last Quarter

Hourly Weather History & Observations

Time (EDT) Temp. Dew Point Humidity Pressure Visibility Wind Dir Wind Speed Gust Speed Precip Events Conditions
12:15 AM 60.8 °F 55.4 °F 82% 30.00 in 10.0 mi West 3.5 mph - N/A   Overcast
12:35 AM 59.0 °F 55.4 °F 88% 30.00 in 10.0 mi WSW 4.6 mph - N/A   Mostly Cloudy
12:55 AM 59.0 °F 55.4 °F 88% 29.99 in 10.0 mi WSW 6.9 mph - N/A   Scattered Clouds
1:35 AM 59.0 °F 55.4 °F 88% 29.99 in 10.0 mi West 5.8 mph - N/A   Mostly Cloudy
2:15 AM 59.0 °F 53.6 °F 82% 29.98 in 10.0 mi West 8.1 mph - N/A   Overcast
2:55 AM 57.2 °F 53.6 °F 88% 29.97 in 10.0 mi West 5.8 mph - N/A   Scattered Clouds
3:15 AM 55.4 °F 53.6 °F 94% 29.97 in 10.0 mi Calm Calm - N/A   Clear
3:35 AM 55.4 °F 53.6 °F 94% 29.97 in 10.0 mi Calm Calm - N/A   Clear
3:55 AM 55.4 °F 51.8 °F 88% 29.97 in 10.0 mi WSW 4.6 mph - N/A   Clear
4:35 AM 53.6 °F 51.8 °F 94% 29.97 in 10.0 mi Calm Calm - N/A   Clear
5:35 AM 53.6 °F 51.8 °F 94% 29.98 in 10.0 mi Calm Calm - N/A   Clear
6:15 AM 51.8 °F 51.8 °F 100% 29.99 in 10.0 mi Calm Calm - N/A   Clear
6:55 AM 51.8 °F 50.0 °F 94% 30.00 in 5.0 mi Calm Calm - N/A   Clear
8:15 AM 59.0 °F 55.4 °F 88% 30.01 in 10.0 mi Calm Calm - N/A   Clear
8:55 AM 62.6 °F 53.6 °F 72% 30.02 in 10.0 mi Calm Calm - N/A   Clear
9:15 AM 64.4 °F 53.6 °F 68% 30.02 in 10.0 mi West 3.5 mph - N/A   Clear
10:15 AM 68.0 °F 55.4 °F 64% 30.02 in 10.0 mi West 5.8 mph - N/A   Clear
10:35 AM 68.0 °F 55.4 °F 64% 30.02 in 10.0 mi Calm Calm - N/A   Clear
10:55 AM 69.8 °F 55.4 °F 60% 30.02 in 10.0 mi Calm Calm - N/A   Clear
11:15 AM 71.6 °F 55.4 °F 57% 30.02 in 10.0 mi WNW 4.6 mph - N/A   Clear
11:35 AM 71.6 °F 55.4 °F 57% 30.02 in 10.0 mi WNW 5.8 mph - N/A   Clear
11:55 AM 71.6 °F 53.6 °F 53% 30.02 in 10.0 mi West 4.6 mph - N/A   Clear
12:15 PM 73.4 °F 53.6 °F 50% 30.03 in 10.0 mi WSW 3.5 mph - N/A   Clear
12:35 PM 75.2 °F 53.6 °F 47% 30.03 in 10.0 mi West 6.9 mph - N/A   Clear
12:55 PM 73.4 °F 51.8 °F 47% 30.02 in 10.0 mi Calm Calm - N/A   Clear
1:15 PM 75.2 °F 53.6 °F 47% 30.02 in 10.0 mi SW 5.8 mph - N/A   Clear
1:35 PM 77.0 °F 51.8 °F 41% 30.01 in 10.0 mi WSW 9.2 mph - N/A   Clear
1:55 PM 77.0 °F 48.2 °F 36% 30.01 in 10.0 mi WSW 4.6 mph - N/A   Scattered Clouds
2:15 PM 77.0 °F 48.2 °F 36% 30.00 in 10.0 mi NW 3.5 mph - N/A   Mostly Cloudy
2:35 PM 77.0 °F 48.2 °F 36% 30.00 in 10.0 mi WSW 9.2 mph - N/A   Scattered Clouds
2:55 PM 78.8 °F 46.4 °F 32% 30.00 in 10.0 mi West 11.5 mph - N/A   Mostly Cloudy
3:35 PM 77.0 °F 44.6 °F 32% 29.98 in 10.0 mi West 4.6 mph - N/A   Mostly Cloudy
3:55 PM 78.8 °F 46.4 °F 32% 29.97 in 10.0 mi West 10.4 mph - N/A   Mostly Cloudy
4:15 PM 77.0 °F 44.6 °F 32% 29.97 in 10.0 mi WSW 3.5 mph - N/A   Scattered Clouds
4:35 PM 77.0 °F 46.4 °F 34% 29.96 in 10.0 mi WSW 9.2 mph - N/A   Clear
4:55 PM 77.0 °F 46.4 °F 34% 29.95 in 10.0 mi WSW 8.1 mph - N/A   Clear
5:15 PM 78.8 °F 46.4 °F 32% 29.95 in 10.0 mi SW 8.1 mph 17.3 mph N/A   Clear
5:35 PM 78.8 °F 46.4 °F 32% 29.95 in 10.0 mi WSW 11.5 mph 16.1 mph N/A   Clear
5:55 PM 77.0 °F 44.6 °F 32% 29.95 in 10.0 mi WSW 8.1 mph - N/A   Clear
6:15 PM 77.0 °F 46.4 °F 34% 29.96 in 10.0 mi WSW 9.2 mph - N/A   Clear
6:35 PM 75.2 °F 46.4 °F 36% 29.95 in 10.0 mi SW 8.1 mph - N/A   Scattered Clouds
6:55 PM 73.4 °F 48.2 °F 41% 29.95 in 10.0 mi WSW 6.9 mph - N/A   Mostly Cloudy
7:15 PM 73.4 °F 51.8 °F 47% 29.95 in 10.0 mi WNW 4.6 mph - N/A   Overcast
7:35 PM 71.6 °F 55.4 °F 57% 29.95 in 10.0 mi Calm Calm - N/A   Overcast
7:55 PM 66.2 °F 53.6 °F 64% 29.98 in 10.0 mi WSW 20.7 mph 28.8 mph N/A   Overcast
8:15 PM 64.4 °F 55.4 °F 73% 29.98 in 10.0 mi West 17.3 mph 23.0 mph N/A   Overcast
8:35 PM 64.4 °F 53.6 °F 68% 29.97 in 10.0 mi West 11.5 mph 18.4 mph N/A   Overcast
8:55 PM 62.6 °F 55.4 °F 77% 29.97 in 10.0 mi West 6.9 mph - N/A   Overcast
9:15 PM 62.6 °F 55.4 °F 77% 29.96 in 10.0 mi Calm Calm - N/A   Overcast
9:35 PM 62.6 °F 57.2 °F 82% 29.95 in 10.0 mi ESE 3.5 mph - N/A   Light Drizzle
9:55 PM 62.6 °F 55.4 °F 77% 29.96 in 10.0 mi West 5.8 mph - N/A   Overcast
10:15 PM 62.6 °F 57.2 °F 82% 29.97 in 10.0 mi Calm Calm - N/A   Overcast
10:35 PM 62.6 °F 57.2 °F 82% 29.96 in 10.0 mi Calm Calm - N/A   Overcast
10:55 PM 62.6 °F 57.2 °F 82% 29.95 in 10.0 mi SE 3.5 mph - N/A   Overcast
11:15 PM 62.6 °F 57.2 °F 82% 29.95 in 10.0 mi SE 5.8 mph - N/A   Overcast
11:55 PM 60.8 °F 57.2 °F 88% 29.94 in 10.0 mi SE 8.1 mph - N/A   Drizzle